contact:dominique.lefevre@mio.osupytheas.fr, maurice.libes@osupytheas.fr, didier.mallarino@osupytheas.fr
Project:EMSO http://www.emso-fr.org/EMSO-France
Depth: 2436.0 m
Title:EMSO Ligure Ouest : Data MII capteur MICROCAT
DateTime_Computer,Latitude,Longitude,Temperature,Conductivity,Pressure,DateTime_Instrument
DateTime_Computer,Latitude,Longitude,degC,S m-1,dbar,DateTime_Instrument
2022-08-21T00:00:39Z,42.805,6.029,13.3053,4.60093,2470.493,2022-8-21T02:02:29Z
2022-08-21T00:03:42Z,42.805,6.029,13.3066,4.60128,2470.497,2022-8-21T02:05:32Z
2022-08-21T00:06:45Z,42.805,6.029,13.3089,4.60099,2470.52,2022-8-21T02:08:35Z
2022-08-21T00:09:49Z,42.805,6.029,13.3049,4.60121,2470.52,2022-8-21T02:11:38Z
2022-08-21T00:12:52Z,42.805,6.029,13.3065,4.60105,2470.483,2022-8-21T02:14:42Z
2022-08-21T00:15:55Z,42.805,6.029,13.3098,4.60091,2470.52,2022-8-21T02:17:45Z
2022-08-21T00:18:58Z,42.805,6.029,13.3070,4.60086,2470.474,2022-8-21T02:20:48Z
2022-08-21T00:22:01Z,42.805,6.029,13.3056,4.60099,2470.52,2022-8-21T02:23:51Z
2022-08-21T00:25:04Z,42.805,6.029,13.3060,4.60103,2470.52,2022-8-21T02:26:54Z
2022-08-21T00:28:07Z,42.805,6.029,13.3086,4.60087,2470.52,2022-8-21T02:29:57Z
2022-08-21T00:31:10Z,42.805,6.029,13.3067,4.60105,2470.497,2022-8-21T02:33:00Z
2022-08-21T00:34:14Z,42.805,6.029,13.3090,4.60082,2470.46,2022-8-21T02:36:03Z
2022-08-21T00:37:17Z,42.805,6.029,13.3069,4.60102,2470.52,2022-8-21T02:39:07Z
2022-08-21T00:40:20Z,42.805,6.029,13.3058,4.60135,2470.497,2022-8-21T02:42:10Z
2022-08-21T00:43:23Z,42.805,6.029,13.3082,4.60114,2470.497,2022-8-21T02:45:13Z
2022-08-21T00:46:26Z,42.805,6.029,13.3071,4.60074,2470.53,2022-8-21T02:48:16Z
2022-08-21T00:49:29Z,42.805,6.029,13.3048,4.60085,2470.507,2022-8-21T02:51:19Z
2022-08-21T00:52:32Z,42.805,6.029,13.3070,4.60079,2470.52,2022-8-21T02:54:22Z
2022-08-21T00:55:35Z,42.805,6.029,13.3067,4.60142,2470.507,2022-8-21T02:57:25Z
2022-08-21T00:58:39Z,42.805,6.029,13.3067,4.60108,2470.507,2022-8-21T03:00:28Z
2022-08-21T01:01:42Z,42.805,6.029,13.3084,4.60077,2470.497,2022-8-21T03:03:31Z
2022-08-21T01:04:45Z,42.805,6.029,13.3067,4.60092,2470.483,2022-8-21T03:06:35Z
2022-08-21T01:07:48Z,42.805,6.029,13.3076,4.60133,2470.507,2022-8-21T03:09:38Z
2022-08-21T01:10:51Z,42.805,6.029,13.3044,4.60113,2470.52,2022-8-21T03:12:41Z
2022-08-21T01:13:54Z,42.805,6.029,13.3054,4.60105,2470.507,2022-8-21T03:15:44Z
2022-08-21T01:16:57Z,42.805,6.029,13.3059,4.60131,2470.483,2022-8-21T03:18:47Z
2022-08-21T01:20:00Z,42.805,6.029,13.3063,4.60133,2470.474,2022-8-21T03:21:50Z
2022-08-21T01:23:03Z,42.805,6.029,13.3080,4.60106,2470.497,2022-8-21T03:24:53Z
2022-08-21T01:26:07Z,42.805,6.029,13.3046,4.60108,2470.507,2022-8-21T03:27:56Z
2022-08-21T01:29:10Z,42.805,6.029,13.3065,4.60076,2470.497,2022-8-21T03:31:00Z
2022-08-21T01:32:13Z,42.805,6.029,13.3051,4.60093,2470.46,2022-8-21T03:34:03Z
2022-08-21T01:35:16Z,42.805,6.029,13.3040,4.60079,2470.497,2022-8-21T03:37:06Z
2022-08-21T01:38:19Z,42.805,6.029,13.3050,4.60089,2470.497,2022-8-21T03:40:09Z
2022-08-21T01:41:22Z,42.805,6.029,13.3040,4.60102,2470.474,2022-8-21T03:43:12Z
2022-08-21T01:44:25Z,42.805,6.029,13.3036,4.60107,2470.497,2022-8-21T03:46:15Z
2022-08-21T01:47:28Z,42.805,6.029,13.3041,4.60112,2470.483,2022-8-21T03:49:18Z
2022-08-21T01:50:32Z,42.805,6.029,13.3031,4.60097,2470.52,2022-8-21T03:52:21Z
2022-08-21T01:53:35Z,42.805,6.029,13.3093,4.60105,2470.497,2022-8-21T03:55:25Z
2022-08-21T01:56:38Z,42.805,6.029,13.3058,4.60079,2470.497,2022-8-21T03:58:28Z
2022-08-21T01:59:41Z,42.805,6.029,13.3055,4.60081,2470.483,2022-8-21T04:01:31Z
2022-08-21T02:02:44Z,42.805,6.029,13.3052,4.60102,2470.507,2022-8-21T04:04:34Z
2022-08-21T02:05:47Z,42.805,6.029,13.3055,4.60110,2470.483,2022-8-21T04:07:37Z
2022-08-21T02:08:50Z,42.805,6.029,13.3061,4.60126,2470.497,2022-8-21T04:10:40Z
2022-08-21T02:11:53Z,42.805,6.029,13.3056,4.60122,2470.46,2022-8-21T04:13:43Z
2022-08-21T02:14:57Z,42.805,6.029,13.3058,4.60080,2470.497,2022-8-21T04:16:46Z
2022-08-21T02:18:00Z,42.805,6.029,13.3064,4.60099,2470.483,2022-8-21T04:19:50Z
2022-08-21T02:21:03Z,42.805,6.029,13.3066,4.60092,2470.497,2022-8-21T04:22:53Z
2022-08-21T02:24:06Z,42.805,6.029,13.3074,4.60078,2470.46,2022-8-21T04:25:56Z
2022-08-21T02:27:09Z,42.805,6.029,13.3070,4.60075,2470.497,2022-8-21T04:28:59Z
2022-08-21T02:30:12Z,42.805,6.029,13.3062,4.60074,2470.46,2022-8-21T04:32:02Z
2022-08-21T02:33:15Z,42.805,6.029,13.3043,4.60080,2470.497,2022-8-21T04:35:05Z
2022-08-21T02:36:18Z,42.805,6.029,13.3048,4.60104,2470.483,2022-8-21T04:38:08Z
2022-08-21T02:39:22Z,42.805,6.029,13.3046,4.60089,2470.497,2022-8-21T04:41:11Z
2022-08-21T02:42:25Z,42.805,6.029,13.3053,4.60079,2470.497,2022-8-21T04:44:14Z
2022-08-21T02:45:28Z,42.805,6.029,13.3041,4.60074,2470.483,2022-8-21T04:47:18Z
2022-08-21T02:48:31Z,42.805,6.029,13.3054,4.60092,2470.46,2022-8-21T04:50:21Z
2022-08-21T02:51:34Z,42.805,6.029,13.3044,4.60107,2470.497,2022-8-21T04:53:24Z
2022-08-21T02:54:37Z,42.805,6.029,13.3044,4.60071,2470.474,2022-8-21T04:56:27Z
2022-08-21T02:57:40Z,42.805,6.029,13.3046,4.60086,2470.483,2022-8-21T04:59:30Z
2022-08-21T03:00:43Z,42.805,6.029,13.3054,4.60062,2470.52,2022-8-21T05:02:33Z
2022-08-21T03:03:46Z,42.805,6.029,13.3056,4.60079,2470.45,2022-8-21T05:05:36Z
2022-08-21T03:06:50Z,42.805,6.029,13.3050,4.60095,2470.497,2022-8-21T05:08:39Z
2022-08-21T03:09:53Z,42.805,6.029,13.3046,4.60070,2470.474,2022-8-21T05:11:43Z
2022-08-21T03:12:56Z,42.805,6.029,13.3039,4.60071,2470.437,2022-8-21T05:14:46Z
2022-08-21T03:15:59Z,42.805,6.029,13.3037,4.60078,2470.497,2022-8-21T05:17:49Z
2022-08-21T03:19:02Z,42.805,6.029,13.3042,4.60094,2470.474,2022-8-21T05:20:52Z
2022-08-21T03:22:05Z,42.805,6.029,13.3051,4.60101,2470.474,2022-8-21T05:23:55Z
2022-08-21T03:25:08Z,42.805,6.029,13.3048,4.60067,2470.474,2022-8-21T05:26:58Z
2022-08-21T03:28:11Z,42.805,6.029,13.3050,4.60076,2470.483,2022-8-21T05:30:01Z
2022-08-21T03:31:15Z,42.805,6.029,13.3057,4.60087,2470.474,2022-8-21T05:33:04Z
2022-08-21T03:34:18Z,42.805,6.029,13.3054,4.60085,2470.46,2022-8-21T05:36:08Z
2022-08-21T03:37:21Z,42.805,6.029,13.3063,4.60076,2470.45,2022-8-21T05:39:11Z
2022-08-21T03:40:24Z,42.805,6.029,13.3076,4.60074,2470.474,2022-8-21T05:42:14Z
2022-08-21T03:43:27Z,42.805,6.029,13.3097,4.60087,2470.437,2022-8-21T05:45:17Z
2022-08-21T03:46:30Z,42.805,6.029,13.3089,4.60085,2470.474,2022-8-21T05:48:20Z
2022-08-21T03:49:33Z,42.805,6.029,13.3072,4.60084,2470.427,2022-8-21T05:51:23Z
2022-08-21T03:52:36Z,42.805,6.029,13.3078,4.60081,2470.474,2022-8-21T05:54:26Z
2022-08-21T03:55:40Z,42.805,6.029,13.3086,4.60079,2470.45,2022-8-21T05:57:29Z
2022-08-21T03:58:43Z,42.805,6.029,13.3078,4.60074,2470.497,2022-8-21T06:00:33Z
2022-08-21T04:01:46Z,42.805,6.029,13.3065,4.60093,2470.46,2022-8-21T06:03:36Z
2022-08-21T04:04:49Z,42.805,6.029,13.3058,4.60091,2470.45,2022-8-21T06:06:39Z
2022-08-21T04:07:52Z,42.805,6.029,13.3065,4.60078,2470.437,2022-8-21T06:09:42Z
2022-08-21T04:10:55Z,42.805,6.029,13.3058,4.60080,2470.45,2022-8-21T06:12:45Z
2022-08-21T04:13:58Z,42.805,6.029,13.3059,4.60079,2470.45,2022-8-21T06:15:48Z
2022-08-21T04:17:01Z,42.805,6.029,13.3075,4.60101,2470.437,2022-8-21T06:18:51Z
2022-08-21T04:20:05Z,42.805,6.029,13.3065,4.60101,2470.46,2022-8-21T06:21:54Z
2022-08-21T04:23:08Z,42.805,6.029,13.3069,4.60090,2470.474,2022-8-21T06:24:57Z
2022-08-21T04:26:11Z,42.805,6.029,13.3069,4.60085,2470.474,2022-8-21T06:28:01Z
2022-08-21T04:29:14Z,42.805,6.029,13.3069,4.60087,2470.46,2022-8-21T06:31:04Z
2022-08-21T04:32:17Z,42.805,6.029,13.3052,4.60095,2470.46,2022-8-21T06:34:07Z
2022-08-21T04:35:20Z,42.805,6.029,13.3034,4.60106,2470.45,2022-8-21T06:37:10Z
2022-08-21T04:38:23Z,42.805,6.029,13.3039,4.60097,2470.45,2022-8-21T06:40:13Z
2022-08-21T04:41:26Z,42.805,6.029,13.3043,4.60090,2470.474,2022-8-21T06:43:16Z
2022-08-21T04:44:29Z,42.805,6.029,13.3040,4.60101,2470.437,2022-8-21T06:46:19Z
2022-08-21T04:47:33Z,42.805,6.029,13.3063,4.60102,2470.474,2022-8-21T06:49:22Z
2022-08-21T04:50:36Z,42.805,6.029,13.3043,4.60087,2470.464,2022-8-21T06:52:26Z
2022-08-21T04:53:39Z,42.805,6.029,13.3043,4.60088,2470.437,2022-8-21T06:55:29Z
2022-08-21T04:56:42Z,42.805,6.029,13.3048,4.60090,2470.45,2022-8-21T06:58:32Z
2022-08-21T04:59:45Z,42.805,6.029,13.3051,4.60097,2470.474,2022-8-21T07:01:35Z
2022-08-21T05:02:48Z,42.805,6.029,13.3035,4.60102,2470.464,2022-8-21T07:04:38Z
2022-08-21T05:05:51Z,42.805,6.029,13.3034,4.60095,2470.474,2022-8-21T07:07:41Z
2022-08-21T05:08:54Z,42.805,6.029,13.3041,4.60108,2470.437,2022-8-21T07:10:44Z
2022-08-21T05:11:58Z,42.805,6.029,13.3048,4.60102,2470.427,2022-8-21T07:13:47Z
2022-08-21T05:15:01Z,42.805,6.029,13.3053,4.60094,2470.474,2022-8-21T07:16:51Z
2022-08-21T05:18:04Z,42.805,6.029,13.3062,4.60104,2470.474,2022-8-21T07:19:54Z
2022-08-21T05:21:07Z,42.805,6.029,13.3069,4.60097,2470.437,2022-8-21T07:22:57Z
2022-08-21T05:24:10Z,42.805,6.029,13.3068,4.60096,2470.45,2022-8-21T07:26:00Z
2022-08-21T05:27:13Z,42.805,6.029,13.3056,4.60099,2470.474,2022-8-21T07:29:03Z
2022-08-21T05:30:16Z,42.805,6.029,13.3063,4.60097,2470.45,2022-8-21T07:32:06Z
2022-08-21T05:33:19Z,42.805,6.029,13.3061,4.60129,2470.46,2022-8-21T07:35:09Z
2022-08-21T05:36:23Z,42.805,6.029,13.3056,4.60110,2470.45,2022-8-21T07:38:12Z
2022-08-21T05:39:26Z,42.805,6.029,13.3051,4.60107,2470.45,2022-8-21T07:41:15Z
2022-08-21T05:42:29Z,42.805,6.029,13.3058,4.60109,2470.437,2022-8-21T07:44:19Z
2022-08-21T05:45:32Z,42.805,6.029,13.3057,4.60107,2470.45,2022-8-21T07:47:22Z
2022-08-21T05:48:35Z,42.805,6.029,13.3045,4.60112,2470.427,2022-8-21T07:50:25Z
2022-08-21T05:51:38Z,42.805,6.029,13.3049,4.60100,2470.427,2022-8-21T07:53:28Z
2022-08-21T05:54:41Z,42.805,6.029,13.3060,4.60104,2470.437,2022-8-21T07:56:31Z
2022-08-21T05:57:44Z,42.805,6.029,13.3066,4.60121,2470.427,2022-8-21T07:59:34Z
2022-08-21T06:00:48Z,42.805,6.029,13.3063,4.60082,2470.45,2022-8-21T08:02:37Z
2022-08-21T06:03:51Z,42.805,6.029,13.3060,4.60080,2470.45,2022-8-21T08:05:40Z
2022-08-21T06:06:54Z,42.805,6.029,13.3057,4.60084,2470.45,2022-8-21T08:08:44Z
2022-08-21T06:09:57Z,42.805,6.029,13.3041,4.60096,2470.427,2022-8-21T08:11:47Z
2022-08-21T06:13:00Z,42.805,6.029,13.3039,4.60114,2470.413,2022-8-21T08:14:50Z
2022-08-21T06:16:03Z,42.805,6.029,13.3053,4.60089,2470.446,2022-8-21T08:17:53Z
2022-08-21T06:19:06Z,42.805,6.029,13.3058,4.60081,2470.45,2022-8-21T08:20:56Z
2022-08-21T06:22:09Z,42.805,6.029,13.3050,4.60104,2470.45,2022-8-21T08:23:59Z
2022-08-21T06:25:12Z,42.805,6.029,13.3046,4.60097,2470.427,2022-8-21T08:27:02Z
2022-08-21T06:28:16Z,42.805,6.029,13.3047,4.60075,2470.437,2022-8-21T08:30:05Z
2022-08-21T06:31:19Z,42.805,6.029,13.3046,4.60099,2470.413,2022-8-21T08:33:09Z
2022-08-21T06:34:22Z,42.805,6.029,13.3041,4.60084,2470.427,2022-8-21T08:36:12Z
2022-08-21T06:37:25Z,42.805,6.029,13.3059,4.60133,2470.427,2022-8-21T08:39:15Z
2022-08-21T06:40:28Z,42.805,6.029,13.3056,4.60085,2470.427,2022-8-21T08:42:18Z
2022-08-21T06:43:31Z,42.805,6.029,13.3054,4.60089,2470.437,2022-8-21T08:45:21Z
2022-08-21T06:46:34Z,42.805,6.029,13.3056,4.60069,2470.427,2022-8-21T08:48:24Z
2022-08-21T06:49:37Z,42.805,6.029,13.3054,4.60087,2470.45,2022-8-21T08:51:27Z
2022-08-21T06:52:41Z,42.805,6.029,13.3061,4.60084,2470.45,2022-8-21T08:54:30Z
2022-08-21T06:55:44Z,42.805,6.029,13.3056,4.60081,2470.427,2022-8-21T08:57:34Z
2022-08-21T06:58:47Z,42.805,6.029,13.3058,4.60086,2470.413,2022-8-21T09:00:37Z
2022-08-21T07:01:50Z,42.805,6.029,13.3056,4.60099,2470.404,2022-8-21T09:03:40Z
2022-08-21T07:04:53Z,42.805,6.029,13.3050,4.60101,2470.39,2022-8-21T09:06:43Z
2022-08-21T07:07:56Z,42.805,6.029,13.3064,4.60102,2470.427,2022-8-21T09:09:46Z
2022-08-21T07:10:59Z,42.805,6.029,13.3046,4.60102,2470.413,2022-8-21T09:12:49Z
2022-08-21T07:14:02Z,42.805,6.029,13.3039,4.60084,2470.404,2022-8-21T09:15:52Z
2022-08-21T07:17:06Z,42.805,6.029,13.3035,4.60075,2470.39,2022-8-21T09:18:55Z
2022-08-21T07:20:09Z,42.805,6.029,13.3031,4.60071,2470.404,2022-8-21T09:21:58Z
2022-08-21T07:23:12Z,42.805,6.029,13.3037,4.60081,2470.404,2022-8-21T09:25:02Z
2022-08-21T07:26:15Z,42.805,6.029,13.3053,4.60102,2470.427,2022-8-21T09:28:05Z
2022-08-21T07:29:18Z,42.805,6.029,13.3059,4.60093,2470.427,2022-8-21T09:31:08Z
2022-08-21T07:32:21Z,42.805,6.029,13.3058,4.60088,2470.413,2022-8-21T09:34:11Z
2022-08-21T07:35:24Z,42.805,6.029,13.3065,4.60092,2470.404,2022-8-21T09:37:14Z
2022-08-21T07:38:27Z,42.805,6.029,13.3068,4.60102,2470.427,2022-8-21T09:40:17Z
2022-08-21T07:41:30Z,42.805,6.029,13.3052,4.60090,2470.39,2022-8-21T09:43:20Z
2022-08-21T07:44:34Z,42.805,6.029,13.3061,4.60096,2470.39,2022-8-21T09:46:23Z
2022-08-21T07:47:37Z,42.805,6.029,13.3059,4.60096,2470.404,2022-8-21T09:49:27Z
2022-08-21T07:50:40Z,42.805,6.029,13.3048,4.60107,2470.404,2022-8-21T09:52:30Z
2022-08-21T07:53:43Z,42.805,6.029,13.3059,4.60092,2470.427,2022-8-21T09:55:33Z
2022-08-21T07:56:46Z,42.805,6.029,13.3058,4.60102,2470.39,2022-8-21T09:58:36Z
2022-08-21T07:59:49Z,42.805,6.029,13.3036,4.60102,2470.413,2022-8-21T10:01:39Z
2022-08-21T08:02:52Z,42.805,6.029,13.3046,4.60105,2470.39,2022-8-21T10:04:42Z
2022-08-21T08:05:55Z,42.805,6.029,13.3045,4.60119,2470.404,2022-8-21T10:07:45Z
2022-08-21T08:08:59Z,42.805,6.029,13.3034,4.60121,2470.366,2022-8-21T10:10:48Z
2022-08-21T08:12:02Z,42.805,6.029,13.3050,4.60104,2470.427,2022-8-21T10:13:52Z
2022-08-21T08:15:05Z,42.805,6.029,13.3046,4.60099,2470.39,2022-8-21T10:16:55Z
2022-08-21T08:18:08Z,42.805,6.029,13.3040,4.60091,2470.38,2022-8-21T10:19:58Z
2022-08-21T08:21:11Z,42.805,6.029,13.3042,4.60084,2470.39,2022-8-21T10:23:01Z
2022-08-21T08:24:14Z,42.805,6.029,13.3045,4.60098,2470.427,2022-8-21T10:26:04Z
2022-08-21T08:27:17Z,42.805,6.029,13.3038,4.60096,2470.39,2022-8-21T10:29:07Z
2022-08-21T08:30:20Z,42.805,6.029,13.3053,4.60074,2470.404,2022-8-21T10:32:10Z
2022-08-21T08:33:24Z,42.805,6.029,13.3060,4.60093,2470.404,2022-8-21T10:35:13Z
2022-08-21T08:36:27Z,42.805,6.029,13.3054,4.60106,2470.404,2022-8-21T10:38:17Z
2022-08-21T08:39:30Z,42.805,6.029,13.3046,4.60086,2470.366,2022-8-21T10:41:20Z
2022-08-21T08:42:33Z,42.805,6.029,13.3054,4.60094,2470.404,2022-8-21T10:44:23Z
2022-08-21T08:45:36Z,42.805,6.029,13.3056,4.60086,2470.38,2022-8-21T10:47:26Z
2022-08-21T08:48:39Z,42.805,6.029,13.3050,4.60078,2470.427,2022-8-21T10:50:29Z
2022-08-21T08:51:42Z,42.805,6.029,13.3061,4.60097,2470.38,2022-8-21T10:53:32Z
2022-08-21T08:54:45Z,42.805,6.029,13.3063,4.60099,2470.404,2022-8-21T10:56:35Z
2022-08-21T08:57:49Z,42.805,6.029,13.3073,4.60105,2470.427,2022-8-21T10:59:38Z
2022-08-21T09:00:52Z,42.805,6.029,13.3063,4.60072,2470.366,2022-8-21T11:02:42Z
2022-08-21T09:03:55Z,42.805,6.029,13.3043,4.60093,2470.404,2022-8-21T11:05:45Z
2022-08-21T09:06:58Z,42.805,6.029,13.3040,4.60111,2470.39,2022-8-21T11:08:48Z
2022-08-21T09:10:01Z,42.805,6.029,13.3084,4.60099,2470.39,2022-8-21T11:11:51Z
2022-08-21T09:13:04Z,42.805,6.029,13.3063,4.60114,2470.404,2022-8-21T11:14:54Z
2022-08-21T09:16:07Z,42.805,6.029,13.3064,4.60120,2470.38,2022-8-21T11:17:57Z
2022-08-21T09:19:10Z,42.805,6.029,13.3056,4.60099,2470.404,2022-8-21T11:21:00Z
2022-08-21T09:22:14Z,42.805,6.029,13.3049,4.60111,2470.39,2022-8-21T11:24:03Z
2022-08-21T09:25:17Z,42.805,6.029,13.3051,4.60136,2470.38,2022-8-21T11:27:07Z
2022-08-21T09:28:20Z,42.805,6.029,13.3063,4.60125,2470.38,2022-8-21T11:30:10Z
2022-08-21T09:31:23Z,42.805,6.029,13.3053,4.60104,2470.38,2022-8-21T11:33:13Z
2022-08-21T09:34:26Z,42.805,6.029,13.3034,4.60110,2470.39,2022-8-21T11:36:16Z
2022-08-21T09:37:29Z,42.805,6.029,13.3093,4.60114,2470.38,2022-8-21T11:39:19Z
2022-08-21T09:40:32Z,42.805,6.029,13.3081,4.60126,2470.39,2022-8-21T11:42:22Z
2022-08-21T09:43:35Z,42.805,6.029,13.3071,4.60107,2470.38,2022-8-21T11:45:25Z
2022-08-21T09:46:39Z,42.805,6.029,13.3063,4.60110,2470.38,2022-8-21T11:48:28Z
2022-08-21T09:49:42Z,42.805,6.029,13.3070,4.60096,2470.38,2022-8-21T11:51:32Z
2022-08-21T09:52:45Z,42.805,6.029,13.3070,4.60115,2470.366,2022-8-21T11:54:35Z
2022-08-21T09:55:48Z,42.805,6.029,13.3067,4.60104,2470.39,2022-8-21T11:57:38Z
2022-08-21T09:58:51Z,42.805,6.029,13.3080,4.60111,2470.343,2022-8-21T12:00:41Z
2022-08-21T10:01:54Z,42.805,6.029,13.3064,4.60104,2470.38,2022-8-21T12:03:44Z
2022-08-21T10:04:57Z,42.805,6.029,13.3085,4.60106,2470.404,2022-8-21T12:06:47Z
2022-08-21T10:08:01Z,42.805,6.029,13.3090,4.60099,2470.39,2022-8-21T12:09:50Z
2022-08-21T10:11:04Z,42.805,6.029,13.3082,4.60090,2470.343,2022-8-21T12:12:53Z
2022-08-21T10:14:07Z,42.805,6.029,13.3079,4.60099,2470.404,2022-8-21T12:15:57Z
2022-08-21T10:17:10Z,42.805,6.029,13.3073,4.60089,2470.404,2022-8-21T12:19:00Z
2022-08-21T10:20:13Z,42.805,6.029,13.3066,4.60086,2470.427,2022-8-21T12:22:03Z
2022-08-21T10:23:16Z,42.805,6.029,13.3068,4.60088,2470.413,2022-8-21T12:25:06Z
2022-08-21T10:26:19Z,42.805,6.029,13.3029,4.60099,2470.39,2022-8-21T12:28:09Z
2022-08-21T10:29:22Z,42.805,6.029,13.3046,4.60098,2470.427,2022-8-21T12:31:12Z
2022-08-21T10:32:25Z,42.805,6.029,13.3048,4.60116,2470.427,2022-8-21T12:34:15Z
2022-08-21T10:35:29Z,42.805,6.029,13.3038,4.60110,2470.404,2022-8-21T12:37:18Z
2022-08-21T10:38:32Z,42.805,6.029,13.3046,4.60134,2470.427,2022-8-21T12:40:22Z
2022-08-21T10:41:35Z,42.805,6.029,13.3059,4.60125,2470.437,2022-8-21T12:43:25Z
2022-08-21T10:44:38Z,42.805,6.029,13.3049,4.60126,2470.404,2022-8-21T12:46:28Z
2022-08-21T10:47:41Z,42.805,6.029,13.3065,4.60128,2470.39,2022-8-21T12:49:31Z
2022-08-21T10:50:44Z,42.805,6.029,13.3076,4.60079,2470.39,2022-8-21T12:52:34Z
2022-08-21T10:53:47Z,42.805,6.029,13.3075,4.60074,2470.38,2022-8-21T12:55:37Z
2022-08-21T10:56:51Z,42.805,6.029,13.3073,4.60078,2470.427,2022-8-21T12:58:40Z
2022-08-21T10:59:54Z,42.805,6.029,13.3063,4.60066,2470.38,2022-8-21T13:01:44Z
2022-08-21T11:02:57Z,42.805,6.029,13.3044,4.60085,2470.38,2022-8-21T13:04:47Z
2022-08-21T11:06:00Z,42.805,6.029,13.3046,4.60099,2470.404,2022-8-21T13:07:50Z
2022-08-21T11:09:03Z,42.805,6.029,13.3058,4.60114,2470.376,2022-8-21T13:10:53Z
2022-08-21T11:12:06Z,42.805,6.029,13.3057,4.60106,2470.404,2022-8-21T13:13:56Z
2022-08-21T11:15:09Z,42.805,6.029,13.3036,4.60139,2470.404,2022-8-21T13:16:59Z
2022-08-21T11:18:12Z,42.805,6.029,13.3051,4.60087,2470.413,2022-8-21T13:20:02Z
2022-08-21T11:21:16Z,42.805,6.029,13.3061,4.60093,2470.404,2022-8-21T13:23:05Z
2022-08-21T11:24:19Z,42.805,6.029,13.3063,4.60114,2470.417,2022-8-21T13:26:09Z
2022-08-21T11:27:22Z,42.805,6.029,13.3076,4.60096,2470.38,2022-8-21T13:29:12Z
2022-08-21T11:30:25Z,42.805,6.029,13.3070,4.60091,2470.45,2022-8-21T13:32:15Z
2022-08-21T11:33:28Z,42.805,6.029,13.3063,4.60092,2470.413,2022-8-21T13:35:18Z
2022-08-21T11:36:31Z,42.805,6.029,13.3061,4.60103,2470.413,2022-8-21T13:38:21Z
2022-08-21T11:39:34Z,42.805,6.029,13.3065,4.60099,2470.413,2022-8-21T13:41:24Z
2022-08-21T11:42:37Z,42.805,6.029,13.3075,4.60142,2470.437,2022-8-21T13:44:27Z
2022-08-21T11:45:41Z,42.805,6.029,13.3057,4.60106,2470.427,2022-8-21T13:47:30Z
2022-08-21T11:48:44Z,42.805,6.029,13.3073,4.60087,2470.437,2022-8-21T13:50:34Z
2022-08-21T11:51:47Z,42.805,6.029,13.3074,4.60101,2470.427,2022-8-21T13:53:37Z
2022-08-21T11:54:50Z,42.805,6.029,13.3075,4.60101,2470.427,2022-8-21T13:56:40Z
2022-08-21T11:57:53Z,42.805,6.029,13.3078,4.60093,2470.45,2022-8-21T13:59:43Z
2022-08-21T12:00:56Z,42.805,6.029,13.3060,4.60095,2470.427,2022-8-21T14:02:46Z
2022-08-21T12:03:59Z,42.805,6.029,13.3053,4.60110,2470.413,2022-8-21T14:05:49Z
2022-08-21T12:07:02Z,42.805,6.029,13.3048,4.60111,2470.404,2022-8-21T14:08:52Z
2022-08-21T12:10:06Z,42.805,6.029,13.3051,4.60104,2470.413,2022-8-21T14:11:55Z
2022-08-21T12:13:09Z,42.805,6.029,13.3054,4.60106,2470.427,2022-8-21T14:14:59Z
2022-08-21T12:16:12Z,42.805,6.029,13.3063,4.60108,2470.427,2022-8-21T14:18:02Z
2022-08-21T12:19:15Z,42.805,6.029,13.3091,4.60108,2470.427,2022-8-21T14:21:05Z
2022-08-21T12:22:18Z,42.805,6.029,13.3087,4.60089,2470.45,2022-8-21T14:24:08Z
2022-08-21T12:25:21Z,42.805,6.029,13.3045,4.60078,2470.437,2022-8-21T14:27:11Z
2022-08-21T12:28:24Z,42.805,6.029,13.3047,4.60094,2470.427,2022-8-21T14:30:14Z
2022-08-21T12:31:27Z,42.805,6.029,13.3035,4.60098,2470.437,2022-8-21T14:33:17Z
2022-08-21T12:34:31Z,42.805,6.029,13.3045,4.60093,2470.413,2022-8-21T14:36:20Z
2022-08-21T12:37:34Z,42.805,6.029,13.3040,4.60107,2470.45,2022-8-21T14:39:24Z
2022-08-21T12:40:37Z,42.805,6.029,13.3055,4.60107,2470.437,2022-8-21T14:42:27Z
2022-08-21T12:43:40Z,42.805,6.029,13.3052,4.60097,2470.45,2022-8-21T14:45:30Z
2022-08-21T12:46:43Z,42.805,6.029,13.3058,4.60104,2470.413,2022-8-21T14:48:33Z
2022-08-21T12:49:46Z,42.805,6.029,13.3054,4.60084,2470.427,2022-8-21T14:51:36Z
2022-08-21T12:52:49Z,42.805,6.029,13.3044,4.60101,2470.45,2022-8-21T14:54:39Z
2022-08-21T12:55:52Z,42.805,6.029,13.3060,4.60107,2470.474,2022-8-21T14:57:42Z
2022-08-21T12:58:56Z,42.805,6.029,13.3077,4.60109,2470.46,2022-8-21T15:00:45Z
2022-08-21T13:01:59Z,42.805,6.029,13.3087,4.60089,2470.45,2022-8-21T15:03:49Z
2022-08-21T13:05:02Z,42.805,6.029,13.3065,4.60119,2470.474,2022-8-21T15:06:52Z
2022-08-21T13:08:05Z,42.805,6.029,13.3051,4.60114,2470.474,2022-8-21T15:09:55Z
2022-08-21T13:11:08Z,42.805,6.029,13.3080,4.60104,2470.45,2022-8-21T15:12:58Z
2022-08-21T13:14:11Z,42.805,6.029,13.3072,4.60090,2470.483,2022-8-21T15:16:01Z
2022-08-21T13:17:14Z,42.805,6.029,13.3070,4.60091,2470.413,2022-8-21T15:19:04Z
2022-08-21T13:20:17Z,42.805,6.029,13.3077,4.60216,2470.437,2022-8-21T15:22:07Z
2022-08-21T13:23:21Z,42.805,6.029,13.3082,4.60133,2470.45,2022-8-21T15:25:10Z
2022-08-21T13:26:24Z,42.805,6.029,13.3085,4.60111,2470.474,2022-8-21T15:28:14Z
2022-08-21T13:29:27Z,42.805,6.029,13.3084,4.60132,2470.474,2022-8-21T15:31:17Z
2022-08-21T13:32:30Z,42.805,6.029,13.3065,4.60128,2470.46,2022-8-21T15:34:20Z
2022-08-21T13:35:33Z,42.805,6.029,13.3089,4.60114,2470.497,2022-8-21T15:37:23Z
2022-08-21T13:38:36Z,42.805,6.029,13.3081,4.60137,2470.427,2022-8-21T15:40:26Z
2022-08-21T13:41:39Z,42.805,6.029,13.3082,4.60081,2470.45,2022-8-21T15:43:29Z
2022-08-21T13:44:42Z,42.805,6.029,13.3084,4.60092,2470.497,2022-8-21T15:46:32Z
2022-08-21T13:47:46Z,42.805,6.029,13.3071,4.60109,2470.474,2022-8-21T15:49:35Z
2022-08-21T13:50:49Z,42.805,6.029,13.3095,4.60116,2470.45,2022-8-21T15:52:39Z
2022-08-21T13:53:52Z,42.805,6.029,13.3074,4.60130,2470.46,2022-8-21T15:55:42Z
2022-08-21T13:56:55Z,42.805,6.029,13.3094,4.60130,2470.474,2022-8-21T15:58:45Z
2022-08-21T13:59:58Z,42.805,6.029,13.3112,4.60155,2470.437,2022-8-21T16:01:48Z
2022-08-21T14:03:01Z,42.805,6.029,13.3042,4.60106,2470.46,2022-8-21T16:04:51Z
2022-08-21T14:06:04Z,42.805,6.029,13.3081,4.60140,2470.497,2022-8-21T16:07:54Z
2022-08-21T14:09:07Z,42.805,6.029,13.3101,4.60102,2470.497,2022-8-21T16:10:57Z
2022-08-21T14:12:11Z,42.805,6.029,13.3096,4.60119,2470.474,2022-8-21T16:14:00Z
2022-08-21T14:15:14Z,42.805,6.029,13.3079,4.60102,2470.474,2022-8-21T16:17:04Z
2022-08-21T14:18:17Z,42.805,6.029,13.3049,4.60104,2470.483,2022-8-21T16:20:07Z
2022-08-21T14:21:20Z,42.805,6.029,13.3087,4.60097,2470.46,2022-8-21T16:23:10Z
2022-08-21T14:24:23Z,42.805,6.029,13.3070,4.60135,2470.474,2022-8-21T16:26:13Z
2022-08-21T14:27:26Z,42.805,6.029,13.3082,4.60117,2470.497,2022-8-21T16:29:16Z
2022-08-21T14:30:29Z,42.805,6.029,13.3046,4.60088,2470.483,2022-8-21T16:32:19Z
2022-08-21T14:33:33Z,42.805,6.029,13.3057,4.60129,2470.497,2022-8-21T16:35:22Z
2022-08-21T14:36:36Z,42.805,6.029,13.3078,4.60140,2470.497,2022-8-21T16:38:25Z
2022-08-21T14:39:39Z,42.805,6.029,13.3067,4.60125,2470.497,2022-8-21T16:41:29Z
2022-08-21T14:42:42Z,42.805,6.029,13.3079,4.60106,2470.52,2022-8-21T16:44:32Z
2022-08-21T14:45:45Z,42.805,6.029,13.3075,4.60135,2470.497,2022-8-21T16:47:35Z
2022-08-21T14:48:48Z,42.805,6.029,13.3074,4.60102,2470.497,2022-8-21T16:50:38Z
2022-08-21T14:51:51Z,42.805,6.029,13.3077,4.60092,2470.507,2022-8-21T16:53:41Z
2022-08-21T14:54:54Z,42.805,6.029,13.3076,4.60127,2470.497,2022-8-21T16:56:44Z
2022-08-21T14:57:58Z,42.805,6.029,13.3082,4.60110,2470.483,2022-8-21T16:59:47Z
2022-08-21T15:01:01Z,42.805,6.029,13.3079,4.60122,2470.497,2022-8-21T17:02:50Z
2022-08-21T15:04:04Z,42.805,6.029,13.3082,4.60090,2470.483,2022-8-21T17:05:54Z
2022-08-21T15:07:07Z,42.805,6.029,13.3076,4.60115,2470.46,2022-8-21T17:08:57Z
2022-08-21T15:10:10Z,42.805,6.029,13.3056,4.60146,2470.46,2022-8-21T17:12:00Z
2022-08-21T15:13:13Z,42.805,6.029,13.3082,4.60107,2470.52,2022-8-21T17:15:03Z